Weather History for Moffett NAS, CA

Change the Weather History Date:

Wednesday, April 25, 2012

  Actual Average Record
Temperature  
Mean Temperature 66 °F 60 °F  
Max Temperature 73 °F 70 °F 88 °F (2004)
Min Temperature 59 °F 51 °F 38 °F (1958)
Degree Days  
Heating Degree Days 0    
Month to date heating degree days 173  
Since 1 July heating degree days 1900  
Cooling Degree Days 1    
Month to date cooling degree days 18  
Year to date cooling degree days 18  
Growing Degree Days 16 (Base 50)    
Moisture  
Dew Point 55 °F    
Average Humidity 74    
Maximum Humidity 100    
Minimum Humidity 47    
Precipitation  
Precipitation 0.17 in 0.03 in 0.58 in (1994)
Month to date precipitation 1.67 0.85  
Year to date precipitation 5.42 8.93  
Since 1 July precipitation 7.19 13.98  
Sea Level Pressure  
Sea Level Pressure 29.88 in    
Wind  
Wind Speed 7 mph (SSE)    
Max Wind Speed 16 mph    
Max Gust Speed 20 mph    
Visibility 9 miles    
Events Rain    
T = Trace of Precipitation, MM = Missing Value Source: NWS Daily Summary

Daily Weather History Graph

Daily Weather History Graph

Search for Another Location

Airport:

Trip Planner

Search our weather history database for the weather conditions in past years. The results will help you decide how hot, cold, wet, or windy it might be!

Date:

Astronomy

Apr. 25, 2012 Rise Set
Actual Time 6:19 AM PDT 7:53 PM PDT
Civil Twilight 5:51 AM PDT 8:20 PM PDT
Nautical Twilight 5:18 AM PDT 8:54 PM PDT
Astronomical Twilight 4:43 AM PDT 9:29 PM PDT
Moon 9:12 AM PDT (4/25) No Moon Set
Length of Visible Light 14h 28m
Length of Day
13h 33m
Waxing Crescent, 17% of the Moon is Illuminated
Apr 25
Waxing Crescent
Apr 29
First Quarter
May 5
Full
May 12
Last Quarter
May 20
New

Hourly Weather History & Observations

Time (PDT) Temp. Dew Point Humidity Pressure Visibility Wind Dir Wind Speed Gust Speed Precip Events Conditions
12:56 AM 63.0 °F 51.1 °F 65% 30.02 in 10.0 mi SSE 5.8 mph - N/A   Overcast
1:56 AM 63.0 °F 51.1 °F 65% 30.02 in 10.0 mi South 5.8 mph - N/A   Overcast
2:56 AM 63.0 °F 51.1 °F 65% 30.00 in 10.0 mi SSE 5.8 mph - N/A   Overcast
3:56 AM 62.1 °F 51.1 °F 67% 29.98 in 10.0 mi SE 5.8 mph - N/A   Scattered Clouds
4:56 AM 60.1 °F 51.1 °F 72% 29.98 in 10.0 mi SE 5.8 mph - N/A   Clear
5:56 AM 60.1 °F 51.1 °F 72% 29.97 in 10.0 mi ESE 8.1 mph - N/A   Clear
7:56 AM 61.0 °F 52.0 °F 72% 29.95 in 10.0 mi SE 9.2 mph - N/A   Partly Cloudy
8:56 AM 63.0 °F 52.0 °F 67% 29.94 in 10.0 mi SE 9.2 mph - N/A   Scattered Clouds
9:56 AM 66.0 °F 52.0 °F 60% 29.92 in 10.0 mi SE 9.2 mph - N/A   Mostly Cloudy
10:56 AM 68.0 °F 52.0 °F 56% 29.91 in 10.0 mi SE 4.6 mph - N/A   Overcast
11:56 AM 71.1 °F 50.0 °F 47% 29.90 in 10.0 mi Variable 4.6 mph - N/A   Overcast
12:56 PM 72.0 °F 52.0 °F 49% 29.87 in 10.0 mi Variable 4.6 mph - N/A   Overcast
1:56 PM 71.1 °F 55.9 °F 59% 29.86 in 10.0 mi North 11.5 mph - N/A   Scattered Clouds
2:56 PM 71.1 °F 54.0 °F 55% 29.83 in 10.0 mi NNW 9.2 mph - N/A   Scattered Clouds
3:56 PM 70.0 °F 55.9 °F 61% 29.80 in 10.0 mi NW 11.5 mph - N/A   Mostly Cloudy
4:56 PM 68.0 °F 55.9 °F 65% 29.80 in 10.0 mi NNW 10.4 mph - N/A   Overcast
5:56 PM 69.1 °F 54.0 °F 58% 29.81 in 10.0 mi WNW 10.4 mph - 0.00 in   Overcast
6:56 PM 63.0 °F 57.0 °F 81% 29.84 in 4.0 mi SW 5.8 mph - 0.03 in Rain Light Rain
7:09 PM 62.6 °F 57.2 °F 82% 29.84 in 2.5 mi SW 4.6 mph - 0.05 in Rain Rain
7:27 PM 62.6 °F 59.0 °F 88% 29.84 in 4.0 mi SW 5.8 mph - 0.09 in Rain Light Rain
7:56 PM 61.0 °F 60.1 °F 97% 29.84 in 7.0 mi West 4.6 mph - 0.13 in Rain Light Rain
8:56 PM 60.1 °F 59.0 °F 96% 29.84 in 10.0 mi NW 4.6 mph - 0.01 in   Overcast
9:05 PM 60.8 °F 59.0 °F 94% 29.82 in 10.0 mi WNW 5.8 mph - N/A   Overcast
9:56 PM 60.1 °F 60.1 °F 100% 29.82 in 10.0 mi Calm Calm - N/A   Overcast
10:24 PM 60.8 °F 60.8 °F 100% 29.82 in 10.0 mi Calm Calm - N/A   Partly Cloudy
10:51 PM 60.8 °F 60.8 °F 100% 29.81 in 10.0 mi Calm Calm - N/A   Overcast
10:56 PM 60.1 °F 60.1 °F 100% 29.83 in 10.0 mi ESE 3.5 mph - N/A   Overcast
11:33 PM 60.8 °F 60.8 °F 100% 29.81 in 10.0 mi ESE 6.9 mph - 0.00 in Rain Light Rain
11:56 PM 60.1 °F 60.1 °F 100% 29.82 in 10.0 mi East 6.9 mph - 0.00 in   Overcast